User: anonymous   Login
Location: Oshawa
(43.9000°N, 78.8670°W)
Time: 10:13:00
(UTC-04:00)
Language:

CZ-4C R/B - Orbit

View from above orbital plane
View from above orbital plane
View from above satellite
View from above satellite

Ground track
Ground track

The orbit data is extracted from the following two-line orbital elements,

1 32290U 07055B   14304.11809275  .00011979  00000-0  45137-3 0  9998
2 32290 097.5644 019.8566 0084197 294.5444 124.6312 15.23909612384966
Epoch (UTC): 31 October 2014 02:50:03
Eccentricity: 0.0084197
inclination: 97.5644°
perigee height: 436 km
apogee height: 552 km
right ascension of ascending node: 19.8566°
argument of perigee: 294.5444°
revolutions per day: 15.23909612
mean anomaly at epoch: 124.6312°
orbit number at epoch: 38496

The dashed part of the orbit path shows where the satellite is in the earth's shadow,  

DLR